Location: Asheville, NC
(35.6000°N, 82.5500°W)
Time: 19:46:16
(UTC-04:00)

CUBEBUG 2 - Pass Details

Date: 18 March 2018
Orbit: 586 x 699 km, 97.6° (Epoch: 23 June)

Event Time Altitude Azimuth Distance (km) Brightness Sun altitude
Rises 20:37:33 0° 194° (SSW) 2,990 ? -12.4°
Reaches altitude 10° 20:40:07 10° 208° (SSW) 2,062 ? -12.9°
Maximum altitude 20:43:50 25° 264° (W) 1,286 ? -13.7°
Drops below altitude 10° 20:47:30 10° 320° (NW) 2,015 ? -14.4°
Sets 20:49:59 0° 334° (NNW) 2,906 ? -14.9°
